User: anonymous   Login
Location: Caltech
(34.1382°N, 118.1253°W)
Time: 05:51:59
(UTC-07:00)
Language:

Cosmos 2360 Rocket - Orbit

View from above orbital plane
View from above orbital plane
View from above satellite
View from above satellite

Ground track
Ground track

The orbit data is extracted from the following two-line orbital elements,

1 25407U 98045B   17118.62214818 +.00000023 +00000-0 +36022-4 0  9996
2 25407 071.0093 145.5926 0009958 279.0015 080.9981 14.15757655968898
Epoch (UTC): 28 April 2017 14:55:53
Eccentricity: 0.0009958
inclination: 71.0093°
perigee height: 832 km
apogee height: 847 km
right ascension of ascending node: 145.5926°
argument of perigee: 279.0015°
revolutions per day: 14.15757655
mean anomaly at epoch: 80.9981°
orbit number at epoch: 96889

The dashed part of the orbit path shows where the satellite is in the earth's shadow,  

DLR